Карточка аэропорта UNKL

Внимание!
Информация на этой странице в стадии наполнения.
Если вы не увидели какой-то информации, или заметили неточность - пожалуйста сообщите нам!
Спасибо!
Команда RU-STAFF
Название аэропортаЕмельяново
Название аэропорта (англ.)Yemelyanovo
Превышение942 ft. (287.1 m.)
Координаты56°10.386', 92°29.598'
Высота перехода1100m
Эшелон переходаFL060
Коды ответчика5320-5377
Зона ОрВДКрасноярск РПИ (UNKL)
Данные METARUNKL 251130Z 12003MPS 9999 SCT038 07/02 Q1011 R11/CLRD65 NOSIG RMK QFE733
Проноз погоды (TAF)UNKL 251058Z 2512/2612 11003MPS 7000 -SHRA BKN016CB TEMPO 2517/2524 3500 -SHRA BKN006 BKN016CB BECMG 2600/2602 33005G12MPS
NOTAMshow/hide NOTAM
AWOS   TABLE

Информация о ВПП

ВПП Длина ВПП (м.) Покрытие Курс ВПП Частота ILS
113700Асфальтобетон109110.5
293700Асфальтобетон289111.7

Диспетчерские позиции

Позывной Наименование органа УВД Частота
UNKL_APPКрасноярск-Подход127.7
UNKL_R_APPКрасноярск-Круг122.0
UNKL_TWRКрасноярск-Старт/Посадка118.3
UNKL_GNDКрасноярск-Руление121.9



Спутниковое изображение